Wind_Speed
40 43 39 34 35 37 41 44 47 47 41 33 32 29 25 26 21 20 19 18 20 21 22 23 25 24 40 43 49 7 14 26 31 33 32 33 34 38 39 40 37 38 36 35 30 33 32
41 46 41 35 38 41 44 47 47 42 36 29 28 29 30 25 22 21 15 16 18 17 18 18 19 21 31 43 52 35 16 25 31 32 32 30 34 35 34 32 36 31 37 31 30 32 33
43 46 43 39 41 44 47 49 41 39 34 28 30 31 29 25 22 16 11 11 14 13 13 13 15 17 28 44 32 30 30 25 32 30 31 28 28 33 31 29 26 31 20 29 32 32 31
43 48 42 38 42 46 48 44 42 39 29 31 32 30 29 25 20 14 9 9 12 11 11 12 12 15 28 40 31 21 32 20 31 28 28 28 25 24 22 18 20 21 23 22 26 31 33
43 49 41 38 41 43 44 43 42 38 31 30 31 30 23 22 17 11 9 8 11 14 12 12 13 15 20 38 27 23 29 19 28 30 27 30 26 25 22 21 17 22 17 29 22 19 18
42 46 40 38 41 46 43 42 40 38 32 30 29 25 24 18 13 10 8 9 15 16 17 13 12 13 21 34 32 17 28 19 28 29 30 31 28 28 27 27 23 22 19 13 24 26 24
44 44 39 40 44 46 43 42 39 37 29 31 30 28 22 17 12 12 8 11 17 14 7 11 7 12 18 28 31 21 29 20 31 32 37 34 34 40 36 29 8 19 16 20 14 19 16
44 43 37 40 42 42 40 42 38 34 31 32 28 25 21 15 11 9 11 15 19 12 7 11 11 24 23 21 25 28 28 22 35 34 27 36 37 31 30 23 21 14 15 12 11 12 16
42 43 37 38 41 41 39 40 40 35 32 28 27 24 19 11 10 8 13 21 14 8 2 10 17 28 18 18 25 33 24 15 33 22 22 32 29 26 27 28 22 16 13 12 9 8 13
42 40 36 35 38 38 37 38 39 32 29 30 29 25 18 10 8 9 11 7 5 6 8 8 13 12 14 16 25 25 26 13 17 13 15 11 16 21 29 28 24 18 15 13 9 4 4
41 38 35 33 36 37 35 37 36 30 28 31 35 29 22 18 11 2 3 6 11 7 5 10 22 11 17 17 24 32 27 11 12 14 8 10 19 8 14 27 25 16 18 11 6 3 5
37 35 35 31 34 35 32 34 33 29 26 30 34 34 29 23 20 15 11 11 5 5 4 5 16 12 10 15 31 32 25 14 14 13 12 14 11 7 16 13 22 15 14 8 4 3 1
34 34 36 30 31 32 31 30 31 27 25 25 30 28 27 23 24 23 14 9 5 9 7 8 13 10 18 26 26 29 18 19 11 13 17 20 18 11 12 21 16 15 12 1 2 2 3
32 34 36 34 28 29 30 27 27 25 24 23 26 28 23 14 23 18 15 14 13 6 9 7 14 28 21 29 29 23 19 19 8 11 17 7 7 12 8 8 6 13 9 3 3 3 2
32 32 35 35 27 27 27 25 23 22 24 25 26 26 25 20 16 17 18 16 8 7 19 13 28 27 25 21 17 16 12 15 9 10 6 7 8 13 16 11 10 12 8 9 4 1 2
32 34 35 35 32 24 24 23 19 18 22 25 24 21 21 17 11 14 23 21 19 22 26 13 10 15 18 17 13 11 14 14 11 12 6 9 8 10 8 10 10 6 10 5 6 3 3
33 34 36 36 32 20 23 22 18 16 18 21 20 17 16 16 11 17 25 26 22 19 20 7 12 21 17 24 11 16 8 13 13 12 13 6 3 8 10 9 12 12 11 6 7 3 2
36 32 35 36 29 15 21 22 20 13 13 16 16 12 13 12 8 16 20 23 16 13 10 10 11 19 17 21 17 13 11 4 19 11 8 8 6 7 10 7 10 13 12 11 4 5 4
33 30 31 32 27 19 17 22 19 17 10 11 14 12 15 7 7 15 14 14 11 10 5 6 10 14 11 13 10 14 12 5 15 15 8 10 6 8 5 7 12 12 17 15 13 6 7
31 28 29 30 24 24 23 18 18 17 11 9 10 8 10 6 9 8 11 9 8 6 5 5 12 10 13 12 8 18 14 13 9 17 12 10 6 3 6 1 3 9 14 17 19 12 7
29 27 29 30 24 24 24 22 17 16 14 9 7 6 5 2 4 1 2 6 8 6 5 7 10 10 10 8 5 12 16 14 8 19 18 11 5 6 6 6 5 5 6 15 25 25 10
29 30 32 32 26 25 24 22 16 14 13 8 9 4 5 2 4 3 2 1 3 6 8 9 8 9 9 5 3 4 17 14 12 15 22 16 5 5 5 8 10 14 14 14 13 20 22
31 32 34 34 26 26 25 21 17 11 11 9 8 7 7 6 4 7 5 1 4 4 4 6 9 7 7 6 5 3 10 8 3 7 17 16 12 4 2 4 7 13 13 20 19 15 9
33 32 33 29 27 26 23 18 16 15 11 9 7 9 10 12 11 10 7 7 4 2 10 8 7 7 6 5 7 11 9 9 3 6 10 13 8 5 3 3 1 3 2 1 10 5 5
34 32 30 29 25 24 19 14 13 15 10 14 10 8 13 16 17 14 12 10 7 9 9 7 6 5 7 10 11 8 7 7 6 5 12 12 9 3 2 4 7 4 6 6 7 10 5
34 30 28 27 21 19 16 15 15 16 13 15 18 17 14 19 21 19 16 14 11 11 9 7 6 9 9 10 7 4 5 5 5 6 9 12 12 8 2 3 4 5 11 9 7 10 2
31 29 27 24 22 20 18 15 13 13 18 19 23 25 24 22 23 23 19 16 13 12 10 9 7 9 10 10 6 4 5 5 6 7 9 13 12 14 10 6 6 10 13 8 4 5 2
30 29 26 24 22 20 17 16 14 18 22 26 24 25 25 25 21 23 22 18 14 12 7 8 10 11 9 8 5 5 5 8 6 7 7 13 9 7 10 7 7 7 11 7 5 3 5
31 25 25 24 18 15 17 15 19 25 25 25 15 18 17 18 20 22 25 22 16 12 9 7 5 5 9 8 7 5 5 6 8 5 12 8 10 5 9 2 3 14 11 7 5 5 7
Wind_Direction
348 350 346 335 332 333 333 333 332 330 330 325 319 318 313 303 299 295 292 291 283 280 270 273 253 260 214 213 217 187 211 207 204 209 207 203 205 206 209 211 214 219 226 227 226 231 234
345 345 346 339 339 338 338 339 336 334 332 322 319 317 313 302 294 299 296 295 298 290 276 262 248 244 221 203 222 218 219 193 200 205 204 204 206 208 211 213 215 226 227 231 228 232 236
343 346 347 343 344 342 342 341 340 336 335 329 324 315 318 312 301 304 296 304 304 301 289 269 245 244 221 199 209 213 209 184 196 200 205 202 204 206 212 216 217 223 227 230 230 234 242
342 344 345 347 346 343 343 345 343 343 335 332 325 319 318 323 303 291 286 299 310 317 306 282 249 240 219 192 207 224 195 180 194 188 202 198 203 202 205 202 209 215 225 227 229 234 239
341 345 344 350 346 344 347 349 347 346 342 335 331 328 317 318 302 282 283 290 307 310 296 285 242 228 205 186 186 207 177 172 185 180 189 194 200 197 198 197 185 195 219 218 220 229 234
342 345 345 349 348 347 351 351 351 352 347 344 332 331 327 315 300 283 279 295 310 311 288 273 231 210 188 187 187 183 181 177 178 176 185 189 193 194 201 198 195 193 202 209 224 233 239
343 349 344 351 350 353 353 356 358 353 348 344 340 332 325 313 300 285 284 298 318 318 306 216 217 167 172 200 204 192 183 184 172 182 187 190 192 201 201 199 192 215 214 217 219 227 239
343 347 343 349 350 353 357 3 -0 355 354 346 341 334 320 299 293 280 298 309 316 312 295 219 174 147 161 170 202 173 168 168 176 178 187 184 199 201 199 192 201 192 191 190 207 227 251
343 347 342 347 352 354 356 2 4 0 355 356 355 352 347 303 278 293 316 311 305 306 63 168 189 134 125 137 184 171 175 169 177 191 184 184 190 202 192 187 185 185 195 204 211 236 267
343 347 342 345 352 353 356 1 7 4 3 9 3 10 10 358 295 296 326 344 87 107 91 143 171 119 129 152 165 181 198 167 181 164 157 144 172 185 183 193 192 199 202 209 209 258 275
344 346 342 343 350 352 358 360 9 10 13 27 25 22 30 19 21 341 21 56 102 75 68 122 159 122 140 149 172 167 181 179 187 166 130 135 162 155 179 175 189 201 210 217 204 258 302
345 346 344 339 348 352 356 2 9 18 25 36 35 24 42 50 68 68 69 86 43 38 39 104 171 160 121 134 155 156 163 179 155 166 165 144 163 161 172 178 190 161 161 176 237 266 240
341 345 344 337 345 350 355 2 4 20 21 26 40 43 29 51 44 27 38 15 27 51 85 127 171 151 141 148 155 160 167 149 157 162 128 141 147 150 153 156 157 155 162 144 40 93 210
337 343 345 343 340 349 352 359 5 10 26 26 35 36 24 7 0 31 51 65 59 51 62 160 133 132 123 148 152 167 141 157 145 139 128 121 115 134 163 178 177 173 193 196 186 182 209
333 342 339 340 332 342 349 357 4 0 11 10 3 13 15 25 57 71 75 59 51 63 112 123 121 119 132 152 154 165 165 160 158 157 160 130 122 162 172 190 185 189 198 196 109 104 304
330 341 336 338 334 334 343 356 356 355 358 7 4 18 20 32 72 92 80 82 95 106 131 96 112 132 140 153 164 161 145 171 174 174 111 135 119 168 175 183 191 184 187 172 197 138 248
327 336 335 337 335 327 336 346 357 346 350 5 12 25 40 33 54 98 94 112 101 112 141 91 136 153 153 165 154 149 151 180 187 190 196 148 152 167 192 201 203 191 193 189 166 182 174
325 333 332 338 339 320 333 339 351 338 345 355 4 13 7 6 74 101 114 127 122 131 104 103 149 150 155 169 177 166 176 191 198 196 196 200 158 149 193 209 218 215 220 212 196 203 198
326 330 332 339 336 317 327 332 342 347 318 336 355 9 16 19 94 112 118 126 120 123 120 129 155 178 175 173 178 190 190 145 192 204 192 171 153 123 177 239 226 220 217 216 221 199 215
323 328 331 335 329 320 310 315 335 343 320 302 332 331 344 37 99 138 147 154 160 127 120 101 145 160 167 186 196 197 197 200 205 203 194 187 185 181 178 122 176 210 225 222 214 211 212
322 324 325 329 326 322 317 299 321 336 338 284 290 318 352 35 72 119 233 182 195 195 188 157 167 170 168 161 171 189 201 196 193 199 206 205 202 227 255 256 264 256 240 224 221 228 232
320 320 319 323 322 318 316 310 286 326 333 323 263 267 283 238 139 133 172 217 242 229 204 200 200 184 193 212 182 169 198 203 208 203 209 217 225 252 277 259 258 262 247 238 233 236 249
320 320 318 325 322 316 311 306 300 305 325 342 265 241 229 230 189 169 159 84 87 138 172 187 173 182 196 214 222 201 153 179 207 212 204 213 228 247 243 255 273 278 257 239 232 237 245
321 320 319 319 317 320 313 305 298 267 313 318 327 249 226 216 209 203 186 170 159 164 145 153 163 175 176 177 162 151 163 174 138 174 195 190 187 215 248 242 275 164 110 156 196 195 233
319 319 317 319 318 317 315 308 299 287 274 313 310 293 241 228 213 212 208 197 200 176 174 173 159 161 159 151 138 136 160 184 215 202 191 206 195 241 244 240 281 216 176 125 135 141 115
318 317 315 319 318 312 309 307 307 295 289 290 291 293 273 239 213 207 204 203 199 196 193 188 178 171 173 170 168 148 183 177 177 181 196 208 226 227 188 269 224 171 168 178 163 193 199
318 316 314 311 311 306 302 308 300 294 293 287 287 284 275 249 216 204 200 200 201 201 214 209 196 189 194 198 199 179 183 191 181 193 200 203 219 229 230 247 269 193 192 185 199 168 219
318 316 312 309 308 307 302 307 303 300 298 294 284 266 257 247 214 190 188 193 191 199 191 218 217 217 213 211 214 207 201 197 218 213 225 197 200 213 216 227 256 194 191 204 183 224 272
317 314 315 312 308 306 305 309 316 311 308 300 285 255 243 234 188 193 187 186 185 186 179 183 190 184 205 197 217 207 194 200 218 229 227 225 213 215 211 248 170 186 196 204 227 272 261
Height
3104 3097 3090 3083 3077 3071 3066 3059 3051 3042 3034 3028 3022 3017 3014 3010 3007 3005 3003 3003 3002 3002 3002 3003 3004 3008 3010 3020 3024 3031 3035 3040 3046 3053 3058 3062 3068 3073 3078 3083 3088 3092 3097 3104 3112 3114 3116
3101 3093 3086 3078 3072 3066 3059 3052 3043 3035 3028 3022 3017 3012 3008 3004 3002 3000 2999 2998 2998 2997 2997 2997 2998 3000 3002 3011 3016 3029 3033 3036 3042 3048 3054 3059 3064 3071 3076 3080 3085 3090 3096 3101 3106 3109 3110
3097 3089 3082 3076 3069 3061 3054 3046 3036 3029 3022 3017 3013 3007 3003 3000 2997 2996 2995 2994 2994 2993 2992 2992 2993 2994 2996 3003 3013 3022 3031 3031 3038 3045 3051 3057 3063 3069 3073 3079 3083 3088 3093 3097 3100 3104 3106
3093 3086 3078 3072 3066 3058 3049 3040 3032 3024 3019 3014 3008 3002 2998 2995 2993 2992 2991 2991 2990 2990 2990 2989 2990 2990 2990 3001 3010 3016 3025 3029 3035 3042 3051 3058 3062 3067 3071 3075 3079 3085 3090 3092 3094 3098 3101
3091 3084 3076 3069 3061 3052 3044 3036 3028 3020 3015 3009 3004 2998 2993 2991 2989 2988 2989 2989 2989 2988 2987 2986 2986 2987 2990 3000 3008 3015 3019 3026 3034 3039 3049 3056 3061 3064 3068 3073 3078 3081 3082 3086 3091 3093 3096
3089 3082 3073 3066 3059 3051 3041 3032 3024 3017 3011 3005 3000 2993 2989 2987 2986 2986 2986 2986 2986 2984 2983 2983 2983 2988 2990 2998 3006 3013 3019 3025 3031 3039 3046 3051 3056 3060 3065 3067 3068 3072 3078 3083 3087 3091 3092
3086 3079 3072 3064 3056 3048 3039 3029 3021 3015 3008 3002 2995 2989 2986 2983 2982 2983 2984 2984 2985 2982 2978 2980 2981 2986 2992 2998 3003 3012 3018 3024 3030 3036 3039 3045 3050 3048 3056 3063 3069 3074 3079 3083 3085 3087 3087
3085 3077 3070 3063 3056 3047 3038 3028 3020 3013 3006 2999 2991 2985 2981 2979 2979 2979 2981 2980 2979 2979 2977 2977 2981 2985 2991 2997 3004 3011 3018 3025 3027 3032 3031 3043 3045 3052 3060 3065 3070 3074 3077 3081 3083 3083 3085
3083 3075 3068 3061 3055 3046 3038 3029 3020 3013 3006 2997 2989 2982 2976 2975 2976 2978 2978 2976 2974 2975 2976 2978 2979 2985 2990 2997 3004 3010 3017 3020 3026 3029 3033 3040 3046 3052 3057 3063 3067 3072 3075 3077 3080 3080 3082
3081 3073 3066 3060 3054 3046 3039 3030 3021 3014 3006 2998 2991 2983 2977 2974 2977 2977 2978 2975 2973 2975 2978 2983 2985 2989 2994 2999 3006 3013 3018 3024 3027 3028 3032 3034 3043 3049 3054 3060 3066 3070 3074 3076 3077 3079 3081
3079 3072 3066 3059 3052 3046 3039 3032 3023 3016 3009 3002 2994 2986 2979 2976 2975 2975 2979 2976 2977 2977 2984 2990 2990 2993 2997 3003 3007 3013 3021 3026 3028 3030 3036 3042 3042 3046 3051 3055 3063 3068 3072 3075 3075 3078 3079
3077 3070 3064 3057 3052 3046 3039 3034 3026 3019 3012 3005 2999 2996 2987 2982 2979 2980 2980 2980 2981 2983 2990 2994 2994 2996 3000 3004 3011 3017 3024 3028 3027 3033 3038 3041 3046 3049 3051 3056 3060 3066 3071 3073 3074 3075 3077
3077 3070 3063 3055 3051 3046 3039 3035 3030 3022 3016 3010 3004 3000 2998 2991 2987 2985 2984 2984 2985 2987 2996 2998 2999 3001 3003 3009 3015 3020 3023 3027 3031 3036 3037 3042 3048 3052 3053 3057 3061 3065 3070 3072 3074 3075 3075
3074 3069 3063 3055 3051 3046 3040 3036 3032 3027 3020 3014 3009 3005 3002 2998 2994 2990 2987 2988 2988 2996 2996 3000 3001 3006 3009 3013 3018 3023 3023 3029 3033 3036 3040 3045 3052 3052 3055 3058 3060 3065 3069 3069 3070 3073 3072
3072 3068 3061 3055 3049 3046 3041 3036 3033 3029 3024 3019 3012 3009 3005 3000 2996 2994 2993 2992 2998 2999 3001 3002 3006 3009 3012 3017 3020 3025 3028 3032 3035 3037 3040 3043 3049 3053 3056 3057 3063 3065 3067 3069 3069 3071 3072
3070 3065 3059 3054 3047 3044 3040 3035 3033 3030 3026 3022 3017 3013 3007 3005 3000 2998 2998 2997 3001 3003 3006 3008 3010 3015 3018 3021 3024 3026 3030 3034 3036 3038 3038 3041 3047 3051 3053 3057 3059 3061 3065 3068 3068 3072 3070
3067 3063 3057 3051 3045 3043 3039 3035 3032 3030 3027 3024 3021 3016 3012 3009 3007 3005 3002 3005 3007 3009 3012 3014 3013 3016 3019 3022 3026 3028 3032 3034 3036 3038 3041 3044 3047 3053 3055 3056 3058 3061 3063 3065 3065 3067 3066
3063 3059 3053 3049 3042 3041 3038 3035 3031 3029 3028 3026 3022 3020 3016 3014 3013 3010 3008 3009 3012 3014 3015 3015 3017 3018 3020 3024 3026 3029 3031 3034 3036 3039 3042 3045 3047 3051 3054 3055 3057 3058 3060 3062 3062 3065 3065
3060 3055 3050 3047 3042 3038 3037 3033 3030 3027 3026 3026 3023 3021 3018 3016 3015 3014 3015 3015 3016 3016 3017 3017 3019 3021 3023 3025 3029 3030 3032 3034 3036 3039 3042 3045 3047 3051 3054 3056 3054 3054 3056 3059 3061 3061 3062
3055 3052 3047 3043 3040 3037 3034 3032 3028 3026 3024 3024 3024 3021 3020 3017 3017 3018 3017 3017 3017 3018 3019 3019 3020 3021 3023 3026 3028 3029 3031 3034 3036 3039 3042 3044 3046 3048 3049 3049 3049 3050 3051 3055 3058 3062 3057
3052 3049 3044 3040 3037 3033 3030 3028 3026 3025 3023 3022 3021 3021 3019 3018 3018 3018 3019 3018 3018 3019 3020 3020 3021 3022 3024 3026 3027 3028 3030 3033 3035 3037 3040 3043 3045 3046 3047 3047 3048 3049 3050 3051 3053 3055 3053
3048 3044 3041 3036 3032 3029 3026 3023 3023 3022 3020 3019 3019 3019 3018 3017 3019 3019 3019 3018 3018 3018 3019 3020 3021 3022 3024 3025 3027 3026 3029 3032 3034 3036 3039 3041 3044 3044 3045 3045 3046 3046 3047 3048 3049 3049 3049
3043 3039 3036 3033 3028 3024 3021 3019 3018 3019 3018 3016 3015 3015 3017 3017 3017 3018 3019 3019 3018 3018 3019 3020 3021 3022 3023 3025 3026 3027 3029 3031 3033 3034 3036 3041 3042 3044 3044 3044 3044 3043 3039 3041 3043 3045 3049
3038 3034 3030 3026 3022 3019 3016 3014 3014 3014 3014 3014 3013 3013 3013 3015 3016 3017 3018 3019 3019 3019 3020 3021 3022 3023 3025 3024 3025 3027 3029 3031 3033 3034 3036 3038 3041 3043 3043 3043 3045 3039 3038 3037 3039 3043 3045
3033 3030 3025 3022 3017 3014 3012 3010 3010 3010 3010 3010 3010 3010 3010 3010 3013 3015 3016 3017 3019 3020 3020 3021 3022 3023 3024 3025 3026 3028 3030 3032 3033 3033 3035 3038 3040 3041 3041 3040 3039 3037 3038 3040 3040 3043 3043
3029 3026 3020 3017 3013 3010 3008 3007 3007 3006 3006 3006 3005 3005 3006 3006 3009 3011 3013 3015 3017 3019 3020 3020 3022 3022 3024 3025 3027 3027 3029 3031 3032 3033 3035 3036 3038 3041 3041 3041 3037 3036 3037 3038 3039 3041 3041
3023 3020 3016 3012 3009 3007 3005 3004 3003 3002 3000 3000 2999 2998 2998 2998 3003 3006 3010 3013 3015 3017 3019 3020 3021 3022 3024 3025 3026 3027 3028 3029 3030 3031 3033 3035 3036 3037 3039 3039 3033 3033 3035 3036 3038 3042 3038
3019 3015 3011 3008 3005 3002 3001 3000 2999 2997 2995 2993 2991 2989 2989 2988 2995 3000 3005 3010 3012 3015 3017 3019 3021 3021 3023 3024 3025 3025 3026 3028 3029 3029 3030 3031 3033 3034 3035 3036 3033 3030 3032 3035 3035 3035 3035
3014 3010 3006 3002 3000 2998 2997 2995 2993 2990 2986 2982 2982 2980 2982 2983 2989 2994 3000 3005 3010 3013 3016 3017 3019 3020 3021 3023 3024 3024 3024 3026 3027 3027 3028 3029 3029 3029 3031 3029 3028 3029 3030 3031 3031 3032 3033